EC1ABR Weather Reports


Display with metric or nautical units.
time (UTC)temp
F
wind
direction
speed
MPH
gust
MPH
rain 1hr
in
rain 24hr
in
rain mn
in
humidity
%
barometer
mb
20260510224503 54 0 0.0 0.0 0.00 0.00 0.00 98 1014.8
20260510223604 54 0 0.0 0.0 0.00 0.00 0.00 95 1014.8
20260510222703 54 0 0.0 0.0 0.00 0.00 0.00 95 1015.1
20260510221803 54 0 0.0 0.0 0.00 0.00 0.00 95 1015.0
20260510220903 54 0 0.0 0.0 0.00 0.00 0.00 95 1015.0
20260510220004 55 0 0.0 0.0 0.00 0.00 0.00 94 1015.3
20260510215403 55 0 0.0 0.0 0.00 0.00 0.00 94 1015.3
20260510214503 55 0 0.0 0.0 0.00 0.00 0.00 94 1015.9
20260510213603 55 0 0.0 0.0 0.00 0.00 0.00 94 1016.0
20260510212703 55 0 0.0 0.0 0.00 0.00 0.00 94 1016.2
20260510211803 55 0 0.0 0.0 0.00 0.00 0.00 94 1016.0
20260510210903 55 0 0.0 0.0 0.00 0.00 0.00 93 1015.6
20260510210217 55 0 0.0 0.0 0.00 0.00 0.00 93 1015.5
20260510205403 55 0 0.0 0.0 0.00 0.00 0.00 93 1015.4
20260510204504 55 0 0.0 0.0 0.00 0.00 0.00 92 1015.4
20260510203603 55 0 0.0 0.0 0.00 0.00 0.00 92 1015.3
20260510202915 56 0 0.0 0.0 0.00 0.00 0.00 92 1015.2
20260510201804 56 0 0.0 0.0 0.00 0.00 0.00 92 1014.9
20260510200903 56 0 0.0 0.0 0.00 0.00 0.00 91 1014.7
20260510200004 56 0 0.0 0.0 0.00 0.00 0.00 91 1014.6
20260510195614 56 0 0.0 0.0 0.00 0.00 0.00 91 1014.3
20260510194503 56 0 0.0 0.0 0.00 0.00 0.00 91 1014.1
20260510193814 56 0 0.0 0.0 0.00 0.00 0.00 91 1014.1
20260510192703 56 0 0.0 0.0 0.00 0.00 0.00 91 1013.8
20260510191803 56 0 0.0 0.0 0.00 0.00 0.00 90 1014.1
20260510190904 56 0 0.0 0.0 0.00 0.00 0.00 90 1014.1
20260510190004 56 0 0.0 0.0 0.00 0.00 0.00 90 1014.1
20260510185404 56 0 0.0 0.0 0.00 0.00 0.00 90 1014.3
20260510184503 56 0 0.0 0.0 0.00 0.00 0.00 90 1014.3
20260510183814 56 0 0.0 0.0 0.00 0.00 0.00 89 1014.4
20260510182704 56 0 0.0 0.0 0.00 0.00 0.00 89 1014.3
20260510181804 56 0 0.0 0.0 0.00 0.00 0.00 89 1014.4
20260510180904 56 0 0.0 0.0 0.00 0.00 0.00 89 1014.3
20260510180004 56 0 0.0 0.0 0.00 0.00 0.00 88 1014.3
20260510175615 56 0 0.0 0.0 0.00 0.00 0.00 88 1014.2
20260510174503 56 0 0.0 0.0 0.00 0.00 0.00 88 1014.2
20260510173815 57 0 0.0 0.0 0.00 0.00 0.00 87 1014.3
20260510172704 57 0 0.0 0.0 0.00 0.00 0.00 85 1014.1
20260510171803 57 0 0.0 0.0 0.00 0.00 0.00 82 1014.3
20260510170904 57 0 0.0 0.0 0.00 0.00 0.00 80 1014.6
20260510170004 57 0 0.0 0.0 0.00 0.00 0.00 78 1014.5
20260510165616 57 0 0.0 0.0 0.00 0.00 0.00 77 1014.4
20260510164503 58 0 0.0 0.0 0.00 0.00 0.00 73 1014.5
20260510163603 60 0 0.0 0.0 0.00 0.00 0.00 70 1014.4
20260510162704 62 0 0.0 0.0 0.00 0.00 0.00 69 1014.2
20260510161804 63 0 0.0 0.0 0.00 0.00 0.00 64 1014.1
20260510160903 65 0 0.0 0.0 0.00 0.00 0.00 60 1013.8
20260510160004 65 0 0.0 0.0 0.00 0.00 0.00 60 1013.7
20260510155403 64 0 0.0 0.0 0.00 0.00 0.00 59 1013.7
20260510154503 64 0 0.0 0.0 0.00 0.00 0.00 60 1013.7
20260510153603 64 0 0.0 0.0 0.00 0.00 0.00 59 1013.9
20260510152913 64 0 0.0 0.0 0.00 0.00 0.00 59 1013.8
20260510152016 64 0 0.0 0.0 0.00 0.00 0.00 59 1013.7
20260510150903 65 0 0.0 0.0 0.00 0.00 0.00 59 1013.7
20260510150003 65 0 0.0 0.0 0.00 0.00 0.00 62 1013.8
20260510145617 64 0 0.0 0.0 0.00 0.00 0.00 62 1013.9
20260510144504 63 0 0.0 0.0 0.00 0.00 0.00 65 1013.8
20260510143603 62 0 0.0 0.0 0.00 0.00 0.00 65 1013.8
20260510142703 62 0 0.0 0.0 0.00 0.00 0.00 65 1013.8
20260510141803 62 0 0.0 0.0 0.00 0.00 0.00 67 1013.7
20260510140904 63 0 0.0 0.0 0.00 0.00 0.00 70 1013.9
20260510140003 62 0 0.0 0.0 0.00 0.00 0.00 69 1013.9
20260510135618 62 0 0.0 0.0 0.00 0.00 0.00 71 1013.8
20260510134504 61 0 0.0 0.0 0.00 0.00 0.00 72 1013.6
20260510133603 61 0 0.0 0.0 0.00 0.00 0.00 76 1013.6
20260510132703 60 0 0.0 0.0 0.00 0.00 0.00 76 1013.6
20260510131803 60 0 0.0 0.0 0.00 0.00 0.00 77 1013.6
20260510130903 60 0 0.0 0.0 0.00 0.00 0.00 80 1013.6
20260510130004 59 0 0.0 0.0 0.00 0.00 0.00 84 1013.5
20260510125403 58 0 0.0 0.0 0.00 0.00 0.00 84 1013.4
20260510124503 58 0 0.0 0.0 0.00 0.00 0.00 84 1013.7
20260510123813 57 0 0.0 0.0 0.00 0.00 0.00 83 1013.6
20260510122703 56 0 0.0 0.0 0.00 0.00 0.00 81 1013.6
20260510121803 56 0 0.0 0.0 0.00 0.00 0.00 79 1013.7
20260510120903 57 0 0.0 0.0 0.00 0.00 0.00 75 1014.1
20260510120217 59 0 0.0 0.0 0.00 0.00 0.00 77 1014.2
20260510115403 60 0 0.0 0.0 0.00 0.00 0.00 74 1013.8
20260510114716 59 0 0.0 0.0 0.00 0.00 0.00 73 1013.5
20260510113603 59 0 0.0 0.0 0.00 0.00 0.00 72 1013.4
20260510112703 60 0 0.0 0.0 0.00 0.00 0.00 71 1013.4
20260510111804 60 0 0.0 0.0 0.00 0.00 0.00 70 1013.3
20260510110904 60 0 0.0 0.0 0.00 0.00 0.00 69 1013.4
20260510110213 60 0 0.0 0.0 0.00 0.00 0.00 69 1013.3
20260510105403 60 0 0.0 0.0 0.00 0.00 0.00 69 1013.2
20260510104503 60 0 0.0 0.0 0.00 0.00 0.00 70 1013.2
20260510103603 60 0 0.0 0.0 0.00 0.00 0.00 71 1013.1
20260510102704 59 0 0.0 0.0 0.00 0.00 0.00 71 1013.1
20260510101804 59 0 0.0 0.0 0.00 0.00 0.00 71 1013.1
20260510100903 59 0 0.0 0.0 0.00 0.00 0.00 70 1013.0
20260510100004 60 0 0.0 0.0 0.00 0.00 0.00 69 1012.8
20260510095403 60 0 0.0 0.0 0.00 0.00 0.00 70 1012.7
20260510094503 60 0 0.0 0.0 0.00 0.00 0.00 71 1012.4
20260510093604 59 0 0.0 0.0 0.00 0.00 0.00 73 1012.5
20260510092703 59 0 0.0 0.0 0.00 0.00 0.00 74 1012.4
20260510091803 58 0 0.0 0.0 0.00 0.00 0.00 77 1012.1
20260510090903 58 0 0.0 0.0 0.00 0.00 0.00 81 1012.1
20260510090003 58 0 0.0 0.0 0.00 0.00 0.00 86 1012.0
20260510085403 57 0 0.0 0.0 0.00 0.00 0.00 88 1011.7
20260510084713 57 0 0.0 0.0 0.00 0.00 0.00 92 1011.4
20260510083604 56 0 0.0 0.0 0.00 0.00 0.00 96 1011.3
20260510082703 56 0 0.0 0.0 0.00 0.00 0.00 99 1011.4
20260510081803 56 0 0.0 0.0 0.00 0.00 0.00 99 1011.2
20260510080904 55 0 0.0 0.0 0.00 0.00 0.00 99 1011.2
20260510080003 54 0 0.0 0.0 0.00 0.00 0.00 99 1010.8
20260510075403 54 0 0.0 0.0 0.00 0.00 0.00 99 1010.8
20260510074504 53 0 0.0 0.0 0.00 0.00 0.00 99 1010.7
20260510073603 53 0 0.0 0.0 0.00 0.00 0.00 99 1010.6
20260510072703 52 0 0.0 0.0 0.00 0.00 0.00 99 1010.6
20260510071803 51 0 0.0 0.0 0.00 0.00 0.00 99 1010.6
20260510070903 51 0 0.0 0.0 0.00 0.00 0.00 99 1010.6
20260510070004 51 0 0.0 0.0 0.00 0.00 0.00 99 1010.6
20260510065403 51 0 0.0 0.0 0.00 0.00 0.00 99 1010.4
20260510064714 51 0 0.0 0.0 0.00 0.00 0.00 99 1010.4
20260510063603 50 0 0.0 0.0 0.00 0.00 0.00 99 1010.2
20260510062703 50 0 0.0 0.0 0.00 0.00 0.00 99 1010.2
20260510061803 50 0 0.0 0.0 0.00 0.00 0.00 99 1010.3
20260510061114 50 0 0.0 0.0 0.00 0.00 0.00 99 1010.2
20260510060004 50 0 0.0 0.0 0.00 0.00 0.00 99 1010.2
20260510055403 50 0 0.0 0.0 0.00 0.00 0.00 99 1010.0
20260510054503 50 0 0.0 0.0 0.00 0.00 0.00 99 1010.2
20260510053603 50 0 0.0 0.0 0.00 0.00 0.00 99 1010.3
20260510052703 50 0 0.0 0.0 0.00 0.00 0.00 99 1010.3
20260510051803 50 0 0.0 0.0 0.00 0.00 0.00 99 1010.2
20260510050903 50 0 0.0 0.0 0.00 0.00 0.00 99 1010.2
20260510050217 50 0 0.0 0.0 0.00 0.00 0.00 99 1010.4
20260510045613 50 0 0.0 0.0 0.00 0.00 0.00 99 1010.3
20260510044503 49 0 0.0 0.0 0.00 0.00 0.00 99 1010.4
20260510043603 50 0 0.0 0.0 0.00 0.00 0.00 99 1010.6
20260510042915 50 0 0.0 0.0 0.00 0.00 0.00 99 1010.6
20260510041804 50 0 0.0 0.0 0.00 0.00 0.00 99 1010.7
20260510040904 50 0 0.0 0.0 0.00 0.00 0.00 99 1010.7
20260510040217 50 0 0.0 0.0 0.00 0.00 0.00 99 1010.7
20260510035403 50 0 0.0 0.0 0.00 0.00 0.00 99 1010.5
20260510034503 50 0 0.0 0.0 0.00 0.00 0.00 99 1010.8
20260510033603 50 0 0.0 0.0 0.00 0.00 0.00 99 1010.8
20260510032704 50 0 0.0 0.0 0.00 0.00 0.00 98 1010.8
20260510032013 50 0 0.0 0.0 0.00 0.00 0.00 98 1011.1
20260510030903 50 0 0.0 0.0 0.00 0.00 0.00 98 1010.9
20260510030004 50 0 0.0 0.0 0.00 0.00 0.00 97 1011.0
20260510025403 50 0 0.0 0.0 0.00 0.00 0.00 97 1011.1
20260510024717 50 0 0.0 0.0 0.00 0.00 0.00 97 1011.0
20260510023603 50 0 0.0 0.0 0.00 0.00 0.00 97 1011.1
20260510022917 50 0 0.0 0.0 0.00 0.00 0.00 97 1011.0
20260510021803 50 0 0.0 0.0 0.00 0.00 0.00 97 1011.1
20260510020903 50 0 0.0 0.0 0.00 0.00 0.00 97 1011.1
20260510020004 51 0 0.0 0.0 0.00 0.00 0.00 97 1011.1
20260510015403 51 0 0.0 0.0 0.00 0.00 0.00 97 1011.1
20260510014504 51 0 0.0 0.0 0.00 0.00 0.00 97 1011.1
20260510013603 52 0 0.0 0.0 0.00 0.00 0.00 97 1011.2
20260510012917 52 0 0.0 0.0 0.00 0.00 0.00 98 1011.1
20260510011803 52 0 0.0 0.0 0.00 0.00 0.00 98 1011.3
20260510010903 53 0 0.0 0.0 0.00 0.00 0.00 98 1011.6
20260510010004 53 0 0.0 0.0 0.00 0.00 0.00 98 1011.9
20260510005403 53 0 0.0 0.0 0.00 0.00 0.00 98 1011.8
20260510004503 53 0 0.0 0.0 0.00 0.00 0.00 99 1011.9
20260510003603 53 0 0.0 0.0 0.00 0.00 0.00 99 1012.1
20260510002703 53 0 0.0 0.0 0.00 0.00 0.00 99 1012.1
20260510001803 53 0 0.0 0.0 0.00 0.00 0.00 99 1012.2
20260510000903 54 0 0.0 0.0 0.00 0.00 0.00 99 1012.4
20260510000215 53 0 0.0 0.0 0.00 0.00 0.00 99 1012.3
20260509235403 53 0 0.0 0.0 0.00 0.00 0.00 99 1012.2
20260509234503 53 0 0.0 0.0 0.00 0.00 0.00 98 1012.2
20260509233603 53 0 0.0 0.0 0.00 0.00 0.00 98 1012.2
20260509232913 53 0 0.0 0.0 0.00 0.00 0.00 98 1012.2
20260509231803 53 0 0.0 0.0 0.00 0.00 0.00 98 1012.2
20260509230904 53 0 0.0 0.0 0.00 0.00 0.00 97 1012.2
20260509230221 53 0 0.0 0.0 0.00 0.00 0.00 97 1012.0
20260509225403 53 0 0.0 0.0 0.00 0.00 0.00 97 1012.0